Location: Shepherdstown, WV
(39.4326°N, 77.8042°W)
Time: 18:54:16
(UTC-04:00)

Vanguard 3 - Pass Details

Date: 03 August 2021
Orbit: 510 x 3260 km, 33.3° (Epoch: 22 September)

Event Time Altitude Azimuth Distance (km) Brightness Sun altitude
Rises 01:44:19 0° 282° (WNW) 7,201 12.0 -32.8°
Reaches altitude 10° 01:50:40 10° 270° (W) 6,192 11.5 -32.6°
Enters shadow 02:00:39 22° 241° (WSW) 4,950 10.7 -32.2°
